Starlink 3885

operational
NORAD ID: 52463 Int'l Des: 2022-049 Owner: SPXS Country: US Constellation: starlink
LEOCIRCULAR

About Starlink 3885

Description loading...

Live Position

Loading 3D Globe...

Upcoming Passes

Altitude History

Altitude vs Time

uPlot chart will show altitude changes over time

Two-Line Element Set

1 52463U 22049N 25352.19431771 -.00000768 00000-0 -30134-4 0 9995
2 52463 53.2183 54.9701 0001522 87.8165 272.3002 15.08841963200086
Epoch: Dec 18, 2025 • Age: 11 hours

Current Status

Altitude 547.8 km
Velocity 7.59 km/s
Sub-Earth Point -25.73°S, 69.7°E
Launch Date May 6, 2022
Age 3.6 years
Type internet

Technical Details

Classification Payload
Mass 297.00 kg
Dry Mass 220.00 kg
Total Mass 297.00 kg
Length 0.20 m
Diameter 2.80 m
Span 9.00 m
Shape Box + pan
Manufacturer SPXS
Bus Type Starlink
Phase Status In Orbit
Owner/State SPXS/US

Large Constellations

Loading constellations...